Location: Sungai Anya
(2.6167°N, 114.0500°E)
Time: 20:05:10
(UTC+00:00)

YAOGAN 1 - Pass Details

Date: 19 October 2021
Orbit: 618 x 620 km, 97.9° (Epoch: 07 December)

Event Time Altitude Azimuth Distance (km) Brightness Sun altitude
Rises 10:38:36 0° 131° (SE) 2,888 5.6 -7.8°
Reaches altitude 10° 10:42:06 10° 101° (E) 1,980 4.6 -8.7°
Maximum altitude 10:43:48 12° 77° (ENE) 1,839 4.3 -9.1°
Drops below altitude 10° 10:45:30 10° 54° (NE) 1,977 4.6 -9.5°
Sets 10:48:58 0° 24° (NNE) 2,880 5.7 -10.4°
